Location: Barcelona
(41.3830°N, 2.1830°E)
Time: 13:13:58
(UTC+01:00)

ISS - Pass Details

Date: 10 December 2019
Orbit: 411 x 421 km, 51.6° (Epoch: 11 December)

Event Time Altitude Azimuth Distance (km) Brightness Sun altitude
Rises 18:23:38 0° 304° (NW) 2,358 0.6 -11.3°
Reaches altitude 10° 18:25:44 10° 304° (WNW) 1,494 -0.5 -11.7°
Maximum altitude 18:29:05 80° 219° (SW) 427 -3.7 -12.3°
Drops below altitude 10° 18:32:26 10° 130° (SE) 1,491 -1.3 -12.9°
Enters shadow 18:33:05 - 130° (SE) 1,758 -0.9 -13.0°
